EN

Hourly Weather Gwalior

Today, 28 November, Saturday

Time Temperature Precipitation Wind Pressure Humidity
00:00 +18°C° 0 mm 2 mps 746 mmHg 46%
01:00 +18°C° 0 mm 2 mps 746 mmHg 46%
02:00 +17°C° 0 mm 2 mps 745 mmHg 47%
03:00 +17°C° 0 mm 2 mps 745 mmHg 47%
04:00 +16°C° 0 mm 2 mps 745 mmHg 47%
05:00 +16°C° 0 mm 1 mps 745 mmHg 49%
06:00 +17°C° 0 mm 2 mps 746 mmHg 47%
07:00 +18°C° 0 mm 2 mps 746 mmHg 46%
08:00 +19°C° 0 mm 2 mps 747 mmHg 44%
09:00 +21°C° 0 mm 2 mps 747 mmHg 40%
10:00 +24°C° 0 mm 2 mps 747 mmHg 35%
11:00 +26°C° 0 mm 2 mps 747 mmHg 31%
12:00 +26°C° 0 mm 2 mps 746 mmHg 29%
13:00 +27°C° 0 mm 2 mps 745 mmHg 27%
14:00 +27°C° 0 mm 2 mps 744 mmHg 25%
15:00 +26°C° 0 mm 2 mps 744 mmHg 28%
16:00 +24°C° 0 mm 2 mps 744 mmHg 32%
17:00 +22°C° 0 mm 1 mps 743 mmHg 35%
18:00 +22°C° 0 mm 1 mps 744 mmHg 37%
19:00 +21°C° 0 mm 1 mps 744 mmHg 38%
20:00 +20°C° 0 mm 1 mps 744 mmHg 39%
21:00 +20°C° 0 mm 1 mps 744 mmHg 39%
22:00 +20°C° 0 mm 1 mps 744 mmHg 40%
23:00 +19°C° 0 mm 1 mps 744 mmHg 40%

Tomorrow, 29 November, Sunday

Time Temperature Precipitation Wind Pressure Humidity
00:00 +19°C° 0 mm 1 mps 744 mmHg 41%
01:00 +18°C° 0 mm 1 mps 744 mmHg 42%
02:00 +18°C° 0 mm 1 mps 744 mmHg 43%
03:00 +16°C° 0 mm 1 mps 744 mmHg 43%
04:00 +16°C° 0 mm 1 mps 744 mmHg 44%
05:00 +16°C° 0 mm 1 mps 744 mmHg 45%
06:00 +18°C° 0 mm 1 mps 744 mmHg 44%
07:00 +19°C° 0 mm 1 mps 745 mmHg 42%
08:00 +18°C° 0 mm 0 mps 746 mmHg 41%
09:00 +22°C° 0 mm 1 mps 746 mmHg 37%
10:00 +24°C° 0 mm 1 mps 746 mmHg 33%
11:00 +26°C° 0 mm 1 mps 745 mmHg 29%
12:00 +27°C° 0 mm 1 mps 745 mmHg 27%
13:00 +27°C° 0 mm 2 mps 744 mmHg 25%
14:00 +28°C° 0 mm 2 mps 743 mmHg 24%
15:00 +26°C° 0 mm 2 mps 743 mmHg 27%
16:00 +25°C° 0 mm 1 mps 743 mmHg 30%
17:00 +23°C° 0 mm 1 mps 743 mmHg 34%
18:00 +22°C° 0 mm 1 mps 743 mmHg 35%
19:00 +21°C° 0 mm 1 mps 743 mmHg 36%
20:00 +19°C° 0 mm 0 mps 744 mmHg 38%
21:00 +18°C° 0 mm 0 mps 744 mmHg 39%
22:00 +20°C° 0 mm 1 mps 744 mmHg 40%
23:00 +19°C° 0 mm 1 mps 744 mmHg 40%

Day after tomorrow, 30 November, Monday

Time Temperature Precipitation Wind Pressure Humidity
00:00 +19°C° 0 mm 1 mps 743 mmHg 41%
01:00 +19°C° 0 mm 1 mps 743 mmHg 43%
02:00 +18°C° 0 mm 1 mps 743 mmHg 44%
03:00 +18°C° 0 mm 1 mps 743 mmHg 45%
04:00 +16°C° 0 mm 1 mps 743 mmHg 45%
05:00 +15°C° 0 mm 0 mps 743 mmHg 46%
06:00 +16°C° 0 mm 0 mps 743 mmHg 44%
07:00 +17°C° 0 mm 0 mps 744 mmHg 43%
08:00 +18°C° 0 mm 0 mps 745 mmHg 41%
09:00 +20°C° 0 mm 0 mps 745 mmHg 36%
10:00 +23°C° 0 mm 0 mps 744 mmHg 31%
11:00 +25°C° 0 mm 0 mps 744 mmHg 26%
12:00 +28°C° 0 mm 1 mps 744 mmHg 24%
13:00 +28°C° 0 mm 1 mps 743 mmHg 22%
14:00 +29°C° 0 mm 2 mps 743 mmHg 19%
15:00 +27°C° 0 mm 2 mps 742 mmHg 23%
16:00 +25°C° 0 mm 1 mps 742 mmHg 26%
17:00 +24°C° 0 mm 1 mps 742 mmHg 29%
18:00 +23°C° 0 mm 1 mps 743 mmHg 29%
19:00 +22°C° 0 mm 1 mps 743 mmHg 30%
20:00 +19°C° 0 mm 0 mps 744 mmHg 31%
21:00 +19°C° 0 mm 0 mps 744 mmHg 32%
22:00 +18°C° 0 mm 0 mps 744 mmHg 32%
23:00 +18°C° 0 mm 0 mps 744 mmHg 33%

1 December, Tuesday

Time Temperature Precipitation Wind Pressure Humidity
00:00 +20°C° 0 mm 1 mps 744 mmHg 33%
01:00 +19°C° 0 mm 1 mps 743 mmHg 34%
02:00 +19°C° 0 mm 1 mps 743 mmHg 35%
03:00 +19°C° 0 mm 1 mps 743 mmHg 36%
04:00 +16°C° 0 mm 0 mps 743 mmHg 37%
05:00 +16°C° 0 mm 0 mps 743 mmHg 38%
06:00 +17°C° 0 mm 0 mps 744 mmHg 36%
07:00 +18°C° 0 mm 0 mps 744 mmHg 35%
08:00 +19°C° 0 mm 0 mps 745 mmHg 34%
09:00 +21°C° 0 mm 0 mps 745 mmHg 30%
10:00 +23°C° 0 mm 0 mps 745 mmHg 27%
11:00 +26°C° 0 mm 0 mps 745 mmHg 23%
12:00 +28°C° 0 mm 1 mps 744 mmHg 21%
13:00 +29°C° 0 mm 2 mps 743 mmHg 20%
14:00 +30°C° 0 mm 2 mps 743 mmHg 18%
15:00 +28°C° 0 mm 2 mps 742 mmHg 21%
16:00 +26°C° 0 mm 2 mps 742 mmHg 24%
17:00 +24°C° 0 mm 1 mps 742 mmHg 27%
18:00 +23°C° 0 mm 1 mps 743 mmHg 28%
19:00 +22°C° 0 mm 1 mps 743 mmHg 29%
20:00 +20°C° 0 mm 0 mps 743 mmHg 30%
21:00 +19°C° 0 mm 0 mps 743 mmHg 30%
22:00 +19°C° 0 mm 0 mps 743 mmHg 31%
23:00 +21°C° 0 mm 1 mps 743 mmHg 31%

2 December, Wednesday

Time Temperature Precipitation Wind Pressure Humidity
00:00 +20°C° 0 mm 1 mps 743 mmHg 32%
01:00 +20°C° 0 mm 1 mps 743 mmHg 32%
02:00 +19°C° 0 mm 1 mps 742 mmHg 33%
03:00 +19°C° 0 mm 1 mps 742 mmHg 34%
04:00 +19°C° 0 mm 1 mps 742 mmHg 35%
05:00 +18°C° 0 mm 1 mps 742 mmHg 35%
06:00 +19°C° 0 mm 1 mps 743 mmHg 35%
07:00 +20°C° 0 mm 1 mps 743 mmHg 35%
08:00 +20°C° 0 mm 2 mps 744 mmHg 34%
09:00 +24°C° 0 mm 2 mps 744 mmHg 30%
10:00 +26°C° 0 mm 2 mps 744 mmHg 26%
11:00 +28°C° 0 mm 2 mps 743 mmHg 21%
12:00 +29°C° 0 mm 3 mps 743 mmHg 20%
13:00 +30°C° 0 mm 3 mps 742 mmHg 19%
14:00 +31°C° 0 mm 3 mps 741 mmHg 18%
15:00 +28°C° 0 mm 2 mps 741 mmHg 21%
16:00 +26°C° 0 mm 1 mps 740 mmHg 24%
17:00 +22°C° 0 mm 0 mps 740 mmHg 28%
18:00 +22°C° 0 mm 0 mps 740 mmHg 28%
19:00 +23°C° 0 mm 1 mps 740 mmHg 29%
20:00 +22°C° 0 mm 1 mps 741 mmHg 29%
21:00 +22°C° 0 mm 1 mps 741 mmHg 30%
22:00 +21°C° 0 mm 1 mps 741 mmHg 30%
23:00 +21°C° 0 mm 1 mps 741 mmHg 30%

3 December, Thursday

Time Temperature Precipitation Wind Pressure Humidity
00:00 +21°C° 0 mm 1 mps 740 mmHg 31%
01:00 +20°C° 0 mm 1 mps 740 mmHg 31%
02:00 +19°C° 0 mm 1 mps 740 mmHg 32%
03:00 +19°C° 0 mm 1 mps 740 mmHg 32%
04:00 +19°C° 0 mm 1 mps 740 mmHg 32%
05:00 +18°C° 0 mm 1 mps 740 mmHg 33%
06:00 +19°C° 0 mm 1 mps 741 mmHg 32%
07:00 +21°C° 0 mm 1 mps 741 mmHg 32%
08:00 +22°C° 0 mm 1 mps 742 mmHg 32%
09:00 +24°C° 0 mm 1 mps 742 mmHg 28%
10:00 +26°C° 0 mm 1 mps 742 mmHg 24%
11:00 +29°C° 0 mm 1 mps 742 mmHg 20%
12:00 +29°C° 0 mm 1 mps 742 mmHg 19%
13:00 +30°C° 0 mm 1 mps 741 mmHg 17%
14:00 +31°C° 0 mm 1 mps 740 mmHg 16%
15:00 +29°C° 0 mm 2 mps 740 mmHg 19%
16:00 +27°C° 0 mm 2 mps 740 mmHg 22%
17:00 +25°C° 0 mm 2 mps 740 mmHg 24%
18:00 +24°C° 0 mm 1 mps 740 mmHg 25%
19:00 +23°C° 0 mm 1 mps 741 mmHg 26%
20:00 +22°C° 0 mm 1 mps 741 mmHg 27%
21:00 +21°C° 0 mm 1 mps 741 mmHg 28%
22:00 +21°C° 0 mm 1 mps 741 mmHg 28%
23:00 +20°C° 0 mm 1 mps 741 mmHg 29%
Show more